Overview Statistics Trail Chart Weather Telemetry Raw packets
 

This is the latest recevied weather packets stored in our database for station/object IK8SUT-10. If no packets are shown the sender has not sent any weather packets the latest 10 day(s).

<< 1 2 3 4 >>
Time Temp. Humidity Pressure Rain* Wind** Luminosity Snow
1788612227 32.22° C 61% 1021.2 hPa - - - -
1788611326 32.22° C 60% 1021.3 hPa - - - -
1788610425 32.22° C 61% 1021.3 hPa - - - -
1788609524 32.22° C 60% 1021.3 hPa - - - -
1788608623 32.22° C 60% 1021.4 hPa - - - -
1788607722 31.67° C 59% 1021.4 hPa - - - -
1788606822 31.67° C 59% 1021.4 hPa - - - -
1788605921 31.67° C 59% 1021.4 hPa - - - -
1788605020 31.67° C 60% 1021.4 hPa - - - -
1788604119 31.11° C 60% 1021.5 hPa - - - -
1788603218 31.11° C 59% 1021.6 hPa - - - -
1788602318 31.11° C 60% 1021.5 hPa - - - -
1788601417 31.11° C 60% 1021.5 hPa - - - -
1788600516 31.11° C 60% 1021.6 hPa - - - -
1788599615 31.11° C 60% 1021.5 hPa - - - -
1788598714 31.11° C 61% 1021.5 hPa - - - -
1788597814 31.67° C 59% 1021.6 hPa - - - -
1788596932 31.11° C 58% 1021.5 hPa - - - -
1788596031 31.11° C 57% 1021.4 hPa - - - -
1788595130 31.11° C 55% 1021.3 hPa - - - -
1788594230 31.11° C 53% 1021.1 hPa - - - -
1788593329 31.11° C 51% 1021.2 hPa - - - -
1788592428 31.11° C 47% 1021 hPa - - - -
1788591527 30.56° C 44% 1021 hPa - - - -
1788590626 30.56° C 41% 1020.8 hPa - - - -

* Rain since midnight (hover to see other rain measurements)
** Current wind speed in m/s (hover to see current wind gust speed)